Weather Service Report


012 
ASUS45 KSLC 240910
RWRUT 

UTAH REGIONAL WEATHER ROUNDUP
NATIONAL WEATHER SERVICE SALT LAKE CITY UT
200 AM MST SAT FEB 24 2018

UTZ001>011-023>025-241000-

NORTHERN UTAH
  
CITY           SKY/WX    TMP DP  RH WIND       PRES   REMARKS
BRIGHAM CITY   PTCLDY    13   8  80 CALM      30.18S                  
HILL AFB       FLURRIES  18  16  93 CALM      30.14S                  
LOGAN          HAZE       4  -2  76 SE3       30.15S VSB 1/4          
OGDEN          CLOUDY    17  14  88 CALM      30.15S                  
SALT LAKE CITY PTCLDY    16  12  84 SE7       30.17R WCI   6          
WENDOVER       MOCLDY    20   7  57 CALM      30.18F                  
HEBER CITY       N/A      1  -2  85 E3        30.08S                  
WEST JORDAN    PTCLDY    11   9  90 SW6       30.16S WCI   2          

$$

UTZ011>015-024>027-241000-

CENTRAL/NORTHEAST UTAH
  
CITY           SKY/WX    TMP DP  RH WIND       PRES   REMARKS
PROVO AIRPORT  PTCLDY    13  10  88 S8        30.19R WCI   2          
MOAB/CANYONLAN CLEAR     23   9  55 NW13      30.04R WCI  11          
DELTA          PTCLDY     9   5  85 SE3       30.18S                  
PRICE          CLEAR     17   4  56 VRB3G17   30.01S                  
RICHFIELD      CLEAR     16   9  73 CALM      30.15S                  
VERNAL         MOCLDY     6   4  91 CALM      30.00S                  

$$

UTZ013>016-019>022-027-241000-

SOUTHERN UTAH
  
CITY           SKY/WX    TMP DP  RH WIND       PRES   REMARKS
BRYCE CANYON   PTCLDY    -1  -5  82 NW6       30.04S WCI -13          
CEDAR CITY     PTCLDY     4   2  91 SE3       30.14S                  
MILFORD        PTCLDY     5   1  83 W3        30.17F                  
ST GEORGE      SUNNY     29  21  72 SE9       30.25R WCI  20          
HANKSVILLE     CLEAR     23   7  50 W9        30.12R WCI  13          
KANAB          MOCLDY    19  10  68 CALM      30.20R                  
BLANDING         N/A     15  10  82 CALM      30.06R                  

$$

REGIONAL REPORTS     COLORADO/ARIZONA
  
CITY           SKY/WX    TMP DP  RH WIND       PRES   REMARKS
CRAIG, CO      LGT SNOW  15  11  83 W5        29.95S FOG     WCI   8  
GRAND JUNCTION MOCLDY    25  19  78 W7        29.98R WCI  17          
RIFLE, CO      CLOUDY    24  14  65 NW13      29.95S WCI  12          
MONTROSE, CO   CLOUDY    22  19  89 S3        29.98R                  
CORTEZ, CO     PTCLDY    17  16  95 NE5       29.98R WCI  10          
COLORADO CITY    N/A     23  12  63 CALM      30.19R                  
PAGE, AZ       CLEAR     29   9  43 W10G18    30.11R WCI  20          
GRAND CANYON   PTCLDY    -4  -6  91 CALM      30.08R                  
KINGMAN, AZ    CLEAR     28  22  78 E9        30.21S WCI  19          
FLAGSTAFF, AZ  CLEAR     14  10  84 N6        30.03R WCI   5          

$$

REGIONAL REPORTS    NEVADA/IDAHO/WYOMING
  
CITY           SKY/WX    TMP DP  RH WIND       PRES   REMARKS
LAS VEGAS, NV  CLEAR     41   7  24 N10       30.26R                  
ELY, NY        PTCLDY     2  -3  80 SE10      30.16S WCI -14          
ELKO, NV       PTCLDY    11   7  84 CALM      30.20F                  
POCATELLO, ID  CLOUDY    21  11  65 SW23      30.09S WCI   5          
BURLEY, ID     CLOUDY    20   9  62 SW14      30.11F WCI   7          
EVANSTON, WY   PTCLDY     0  -3  87 SW13      29.98S WCI -18          
ROCK SPRINGS,  CLEAR      7   1  76 W18       29.93S WCI -12          

$$
  

Return to Home page


Western Regional Climate Center, wrcc@dri.edu